Location: *
(44.3683°N, 6.6958°E)
Time: 02:03:10
(UTC+00:00)

H-2A R/B - Pass Details

Date: 14 October 2019
Orbit: 733 x 837 km, 98.3° (Epoch: 18 November)

Event Time Altitude Azimuth Distance (km) Brightness Sun altitude
Exits shadow 18:59:39 46° 52° (NE) 1,080 2.4 -23.6°
Drops below altitude 10° 19:04:16 10° 357° (N) 2,428 4.7 -24.4°
Sets 19:06:43 0° 352° (N) 3,376 5.6 -24.8°
